Regional Weather Roundup
Issued by NWS Goodland, KS

Home | Current Version | Previous Version | Graphics & Text | Print | Product List | Glossary On
Versions: 1 2 3 4 5 6 7 8 9 10 11 12 13 14 15 16 17 18 19 20 21 22 23 24 25 26 27 28 29 30 31 32 33 34 35 36 37 38 39 40 41 42 43 44 45 46 47 48 49 50
000
ASUS43 KGLD 100759
RWRGLD

GOODLAND FORECAST AREA HOURLY WEATHER ROUNDUP
NATIONAL WEATHER SERVICE GOODLAND KS
100 AM MST WED FEB 10 2016

...OFFICIAL OBSERVATIONS...

CITY           SKY/WX    TMP DP  RH WIND       PRES   REMARKS
GOODLAND KS    CLEAR     37  25  61 W15       30.15F
HILL CITY KS   CLEAR     30  24  78 W7        30.11F
IMPERIAL NEB   CLEAR     38  26  62 W15       30.10F
MCCOOK NEB     CLEAR     30  26  85 W9        30.09F
AKRON CO       CLOUDY    34  22  61 SW13      30.15F
BURLINGTON CO  CLEAR     33  22  63 W14       30.18F
LIMON CO       CLOUDY    28  18  66 NW12      30.22F WCI  18
$$

...UNOFFICIAL OBSERVATIONS...

CITY           SKY/WX    TMP DP  RH WIND       PRES   REMARKS
COLBY KS       CLEAR     34  28  80 W13       30.14S
GOVE KS          N/A     30  32 100 MISG        N/A
LENORA KS        N/A     36  32  85 MISG        N/A
NORTON KS      CLEAR     28  21  74 SW9       30.08F
SHARON SPRINGS   N/A     38  29  69 W10         N/A
KIT CARSON CO    N/A     31  24  73 MISG        N/A
YUMA CO          N/A     33  25  72 W12         N/A
$$



USA.gov is the U.S. government's official web portal to all federal, state and local government web resources and services.